Tracking 28790 objects as of 18-Apr-2024
HD Live streaming from Space Station
objects crossing your sky now

CZ-4 R/B

Track CZ-4 R/B now!
10-day predictions


NORAD ID: 19468
Int'l Code: 1988-080B
Perigee: 836.9 km
Apogee: 939.7 km
Inclination: 99.1 °
Period: 102.6 minutes
Semi major axis: 7259 km
RCS: 9.5667 m2 (large)
Launch date: September 6, 1988
Source: People's Republic of China (PRC)
Launch site: Taiyaun Space Center, China (TSC)

Note: This is a ROCKET BODY
Your satellite tracking list
Your tracking list is empty




NASA's NSSDC Master Catalog

Two Line Element Set (TLE):
1 19468U 88080B   24108.91170596 -.00000090  00000-0 -27602-4 0  9997
2 19468  99.0707 153.0122 0070813 328.0110 205.3234 14.03652506823318
Source of the keplerian elements: AFSPC